Location: Newark
(40.7360°N, 74.1730°W)
Time: 02:15:26
(UTC-04:00)

ISS - All Passes

Search period start: 21 August 2014 00:00
Search period end: 31 August 2014 00:00
Orbit: 413 x 419 km, 51.6° (Epoch: 20 August)

Date Brightness Start Highest point End Pass type
(mag) Time Alt. Az. Time Alt. Az. Time Alt. Az.
21 Aug - 14:40:11 10° SW 14:43:30 87° SSE 14:46:50 10° NE daylight
21 Aug - 16:18:05 10° WNW 16:20:36 20° NNW 16:23:07 10° NNE daylight
21 Aug - 17:56:45 10° NNW 17:58:19 13° N 17:59:54 10° NNE daylight
21 Aug - 19:33:16 10° NNW 19:36:00 23° NNE 19:38:43 10° ENE daylight
21 Aug - 21:09:40 10° WNW 21:12:58 63° SW 21:16:16 10° SE visible
22 Aug - 13:51:49 10° SSW 13:55:01 48° SE 13:58:14 10° ENE daylight
22 Aug - 15:29:03 10° W 15:31:53 26° NNW 15:34:45 10° NE daylight
22 Aug - 17:07:52 10° NNW 17:09:30 13° N 17:11:08 10° NNE daylight
22 Aug - 18:44:54 10° NNW 18:47:16 18° NNE 18:49:37 10° ENE daylight
22 Aug - 20:21:07 10° NW 20:24:27 73° NE 20:27:47 10° ESE visible
22 Aug - 21:59:18 10° WSW 22:00:46 12° SW 22:02:14 10° SSW visible
23 Aug - 13:03:44 10° SSW 13:06:35 27° SE 13:09:26 10° ENE daylight
23 Aug - 14:40:06 10° W 14:43:13 37° NNW 14:46:20 10° NE daylight
23 Aug - 16:18:48 10° NW 16:20:40 14° N 16:22:32 10° NNE daylight
23 Aug - 17:56:28 10° NNW 17:58:28 15° NNE 18:00:28 10° NE daylight
23 Aug - 19:32:38 10° NW 19:35:51 44° NNE 19:39:04 10° ESE daylight
23 Aug - 21:09:46 10° W 21:12:24 22° SW 21:15:01 10° S visible
24 Aug - 12:16:09 10° SSE 12:18:11 15° SE 12:20:13 10° E daylight
24 Aug - 13:51:18 10° WSW 13:54:34 59° NNW 13:57:52 10° NE daylight
24 Aug - 15:29:38 10° NW 15:31:51 16° NNW 15:34:03 10° NNE daylight
24 Aug - 17:07:55 10° NNW 17:09:37 13° N 17:11:20 10° NE daylight
24 Aug - 18:44:12 10° NW 18:47:11 29° NNE 18:50:09 10° E daylight
24 Aug - 20:20:50 10° WNW 20:23:57 38° SW 20:27:04 10° SSE visible
25 Aug - 13:02:40 10° SW 13:05:59 80° SE 13:09:18 10° NE daylight
25 Aug - 14:40:28 10° WNW 14:43:02 20° NNW 14:45:37 10° NNE daylight
25 Aug - 16:19:10 10° NNW 16:20:44 13° N 16:22:18 10° NNE daylight
25 Aug - 17:55:46 10° NNW 17:58:25 22° NNE 18:01:05 10° ENE daylight
25 Aug - 19:32:06 10° WNW 19:35:26 70° SW 19:38:44 10° SE daylight
26 Aug - 12:14:16 10° SSW 12:17:25 43° SE 12:20:36 10° ENE daylight
26 Aug - 13:51:21 10° W 13:54:15 27° NNW 13:57:09 10° NE daylight
26 Aug - 15:30:11 10° NW 15:31:50 13° N 15:33:29 10° NNE daylight
26 Aug - 17:07:18 10° NNW 17:09:36 17° NNE 17:11:54 10° ENE daylight
26 Aug - 18:43:30 10° NW 18:46:49 67° NE 18:50:08 10° ESE daylight
26 Aug - 20:21:25 10° W 20:23:10 14° SW 20:24:54 10° SSW visible
27 Aug - 11:26:10 10° S 11:28:54 24° SE 11:31:40 10° ENE daylight
27 Aug - 13:02:21 10° W 13:05:30 39° NNW 13:08:40 10° NE daylight
27 Aug - 14:41:01 10° NW 14:42:55 14° N 14:44:50 10° NNE daylight
27 Aug - 16:18:46 10° NNW 16:20:43 14° N 16:22:39 10° NE daylight
27 Aug - 17:54:57 10° NW 17:58:08 40° NNE 18:01:18 10° ESE daylight
27 Aug - 19:31:58 10° WNW 19:34:42 24° SW 19:37:26 10° S daylight
28 Aug - 10:38:37 10° SSE 10:40:26 14° SE 10:42:15 10° E daylight
28 Aug - 12:13:30 10° WSW 12:16:47 65° NW 12:20:06 10° NE daylight
28 Aug - 13:51:45 10° WNW 13:54:01 17° NNW 13:56:17 10° NNE daylight
28 Aug - 15:30:07 10° NNW 15:31:47 13° N 15:33:27 10° NE daylight
28 Aug - 17:06:26 10° NW 17:09:21 28° NNE 17:12:16 10° E daylight
28 Aug - 18:43:00 10° WNW 18:46:10 42° SW 18:49:19 10° SSE daylight
29 Aug - 11:24:49 10° SW 11:28:07 72° SE 11:31:26 10° ENE daylight
29 Aug - 13:02:30 10° WNW 13:05:08 21° NNW 13:07:46 10° NNE daylight
29 Aug - 14:41:15 10° NNW 14:42:49 13° N 14:44:23 10° NNE daylight
29 Aug - 16:17:55 10° NNW 16:20:30 21° NNE 16:23:06 10° ENE daylight
29 Aug - 17:54:13 10° NW 17:57:33 77° SW 18:00:52 10° SE daylight
30 Aug - 10:36:23 10° SSW 10:39:30 39° SE 10:42:37 10° ENE daylight
30 Aug - 12:13:20 10° W 12:16:16 29° NNW 12:19:14 10° NE daylight
30 Aug - 13:52:09 10° NW 13:53:50 13° N 13:55:31 10° NNE daylight
30 Aug - 15:29:22 10° NNW 15:31:36 17° NNE 15:33:49 10° ENE daylight
30 Aug - 17:05:32 10° NW 17:08:51 61° NNE 17:12:08 10° ESE daylight
30 Aug - 18:43:14 10° W 18:45:13 15° SW 18:47:12 10° SSW daylight
